Location: Gro�sch�nbrunn
(49.5760°N, 11.8868°E)
Time: 03:10:31
(UTC+00:00)

Cosmos 1048 Rocket - Pass Details

Date: 18 September 2020
Orbit: 743 x 792 km, 74.0° (Epoch: 18 October)

Event Time Altitude Azimuth Distance (km) Brightness Sun altitude
Rises 19:23:45 0° 334° (NNW) 3,257 8.1 -20.3°
Reaches altitude 10° 19:26:08 10° 331° (NNW) 2,333 7.3 -20.6°
Maximum altitude 19:31:22 64° 251° (WSW) 866 4.3 -21.4°
Enters shadow 19:34:11 28° 179° (S) 1,451 5.1 -21.7°
